Probability
0 0 0 0 0 0 0 0 0 0 0 0 0 0 0 0 0 0 0 0 0 0 0 0 0 0 0 0 0 0 0 0 0 0 0 0 0 0 0 1 0 0 0
0 0 0 0 0 0 0 0 0 0 0 0 0 0 0 0 0 0 0 0 0 0 0 0 0 0 0 0 0 0 0 0 0 0 0 0 0 0 0 1 1 0 0
0 0 0 0 0 0 0 0 0 0 0 0 0 0 0 0 0 0 0 0 0 0 0 0 0 0 0 0 0 0 0 0 0 0 0 0 0 0 0 1 2 1 0
0 0 0 0 0 0 0 0 0 0 0 0 0 0 0 0 0 0 0 0 0 0 0 0 0 0 0 0 0 0 0 0 0 0 0 0 0 0 0 1 2 2 1
0 0 0 0 0 0 0 0 0 0 0 0 0 0 0 0 0 0 0 0 0 0 0 0 0 0 0 0 0 0 0 0 0 0 0 0 0 0 0 0 1 2 3
1 0 0 1 2 1 1 1 0 0 0 0 0 0 0 0 0 0 0 0 0 0 0 0 0 0 0 0 0 0 0 0 0 0 0 0 0 0 0 0 1 2 3
2 1 1 2 3 2 2 2 1 0 0 0 0 0 0 0 0 0 0 0 0 0 0 0 0 0 1 1 1 0 0 0 0 0 0 0 0 0 0 0 1 2 3
4 3 2 2 2 2 2 2 1 0 0 0 0 0 0 0 0 0 0 0 0 0 0 0 0 1 2 2 1 0 0 0 0 0 0 0 0 0 0 1 1 2 3
5 5 4 2 1 0 1 1 1 0 0 0 0 0 0 0 0 0 0 0 0 0 0 0 0 1 2 2 1 0 0 0 0 0 0 0 0 0 0 1 2 2 2
5 6 4 2 1 0 0 0 0 0 0 0 0 0 0 0 0 0 0 0 0 0 0 0 0 0 1 1 0 0 0 0 0 0 0 0 0 0 0 1 2 2 1
5 5 4 2 2 1 0 0 0 0 0 0 0 0 0 0 0 0 0 0 0 0 0 0 0 0 0 0 0 0 0 0 0 0 0 0 0 0 0 0 1 2 2
4 3 3 4 3 1 0 0 0 0 0 0 0 0 0 0 0 0 0 0 0 0 0 0 0 0 0 0 0 0 0 0 0 0 0 0 0 0 0 0 1 2 2
2 2 3 4 3 1 0 0 0 0 0 0 0 0 0 0 0 0 0 0 0 0 0 0 0 0 0 0 0 0 0 0 0 0 0 0 0 1 1 1 1 1 2
1 1 2 2 1 0 0 0 0 0 0 0 0 0 0 0 0 0 0 0 0 0 0 0 0 0 0 0 0 0 0 0 0 0 0 0 0 1 2 2 2 1 1
1 1 1 0 0 0 0 0 0 0 0 0 0 0 0 0 0 0 0 0 0 0 0 0 0 0 0 0 0 0 0 0 0 0 0 0 0 0 1 2 2 1 1
0 0 0 0 0 0 0 0 0 0 0 0 0 0 0 0 0 0 0 0 0 0 0 0 0 0 0 0 0 0 0 0 0 0 0 0 0 0 0 1 1 1 0
0 0 0 0 0 0 0 0 0 0 0 0 0 0 0 0 0 0 0 0 0 0 0 0 0 0 0 0 0 0 0 0 0 0 0 0 0 0 0 0 0 0 0
0 0 0 0 0 0 0 0 0 0 0 0 0 0 0 0 0 0 0 0 0 0 0 0 0 0 0 0 0 0 0 0 0 0 0 0 0 0 0 0 0 0 0
0 0 0 0 0 0 0 0 0 0 0 0 0 0 0 0 0 0 0 0 0 0 0 0 0 0 0 0 0 0 0 0 0 0 0 0 0 0 0 0 0 0 0
0 0 0 0 0 0 0 0 0 0 0 0 0 0 0 0 0 0 0 0 0 0 0 0 0 0 0 0 0 0 0 0 0 0 0 0 0 0 0 0 0 0 0
0 0 0 0 0 0 0 0 0 0 0 0 0 0 0 0 0 0 0 0 0 0 0 0 0 0 0 0 0 0 0 0 0 0 0 0 0 0 0 0 0 0 0
0 0 0 0 0 0 0 0 0 0 0 0 0 0 0 0 0 0 0 0 0 0 0 0 0 0 0 0 0 0 0 0 0 0 0 0 0 0 0 0 0 0 0
0 0 0 0 0 0 0 0 0 0 0 0 0 0 0 0 0 0 0 0 0 0 0 0 0 0 0 0 0 0 0 0 0 0 0 0 0 0 0 0 0 0 0
0 0 0 0 0 0 0 0 0 0 0 0 0 0 0 0 0 0 0 0 0 0 0 0 0 0 0 0 0 0 0 0 0 0 0 0 0 0 0 0 0 0 0
0 0 0 0 0 0 0 0 0 0 0 0 0 0 0 0 0 0 0 0 0 0 0 0 0 0 0 0 0 0 0 0 0 0 0 0 0 0 0 0 0 0 0
0 0 0 0 0 0 0 0 0 0 0 0 0 0 0 0 0 0 0 0 0 0 0 0 0 0 0 0 0 0 0 0 0 0 0 0 0 0 0 0 0 0 0
Wind_Speed
1 2 1 2 5 7 8 8 9 9 9 10 10 10 10 10 10 10 10 9 9 10 10 10 10 10 10 10 11 11 11 11 11 11 10 10 10 10 10 10 9 6 10
2 1 1 3 6 7 8 8 9 9 9 9 9 10 10 10 9 10 10 9 9 9 10 10 10 10 10 10 11 11 11 11 11 10 10 9 8 9 10 10 9 7 11
2 1 2 4 6 7 8 8 9 9 8 9 9 9 9 9 9 9 9 9 9 9 9 9 9 10 10 10 10 10 11 11 11 10 9 5 5 8 9 9 9 9 10
3 2 2 4 7 7 8 8 8 8 8 8 9 9 9 9 9 8 8 8 9 8 8 9 9 9 10 10 10 10 10 10 10 9 5 4 4 8 9 9 9 9 8
3 3 3 6 7 7 8 8 7 7 8 8 8 8 8 8 8 8 8 8 8 8 8 8 8 9 9 9 10 10 10 10 10 8 4 4 3 7 9 9 8 8 8
4 3 3 6 7 7 7 7 7 7 7 7 7 7 8 8 8 8 8 8 8 8 8 8 8 9 9 9 9 9 9 9 8 5 4 4 3 6 8 8 8 8 7
4 3 4 6 7 7 7 7 7 7 7 7 7 7 8 8 8 8 8 8 8 8 8 9 9 9 9 9 10 9 9 9 6 5 4 3 4 7 7 7 7 7 6
4 4 4 6 7 7 7 7 7 7 8 8 8 8 8 8 8 8 8 8 8 8 8 8 9 9 9 9 10 10 10 9 6 5 4 3 5 7 7 7 7 7 6
4 4 3 4 5 6 7 7 7 7 7 7 7 8 8 9 9 9 9 9 9 9 9 9 9 9 8 9 9 10 10 10 6 4 4 3 5 6 7 7 7 7 7
4 4 3 4 4 4 4 6 7 7 7 7 8 8 8 8 9 9 8 8 9 9 10 10 11 10 10 9 9 9 9 7 4 4 3 3 6 6 6 7 7 8 8
3 2 3 3 3 3 3 5 5 6 6 6 6 8 7 4 4 5 7 8 9 9 10 10 11 11 10 9 9 9 7 3 4 3 2 5 6 6 6 7 7 8 8
3 1 2 2 2 2 3 3 2 3 3 3 3 3 3 3 3 4 7 8 9 9 9 10 11 10 8 4 6 7 3 4 3 3 3 7 7 7 7 7 7 8 8
4 3 2 2 2 2 2 2 2 2 2 2 3 3 2 3 3 3 2 3 4 6 5 6 6 4 4 3 3 3 3 3 2 3 4 7 7 7 7 7 7 8 8
4 4 3 2 2 2 2 2 2 1 1 2 2 2 2 2 2 2 2 2 2 2 3 3 3 4 4 4 4 4 4 3 3 2 4 8 8 8 8 7 7 8 8
4 4 3 3 3 2 2 2 2 2 2 2 2 2 2 2 2 2 2 2 2 2 2 2 3 3 3 3 3 4 4 4 4 4 4 9 9 8 7 8 8 7 7
5 5 5 4 4 3 2 1 2 2 2 2 2 2 2 2 2 2 2 2 2 2 2 2 2 2 2 3 3 4 4 3 3 3 3 5 9 9 8 8 8 8 7
6 5 6 5 4 4 3 2 2 2 2 2 2 2 2 2 2 2 2 2 1 2 2 2 2 2 2 3 3 3 3 3 3 3 3 3 4 8 9 9 8 8 7
5 5 6 5 5 5 4 2 2 2 2 2 2 2 2 2 3 3 2 1 1 2 2 2 2 2 2 2 2 2 2 3 3 3 3 3 3 4 6 9 9 9 8
6 6 6 6 6 5 4 3 2 2 2 2 2 2 2 3 3 3 2 2 2 2 2 2 2 2 2 2 2 2 2 2 2 3 4 4 4 4 3 6 9 9 8
5 5 5 6 6 5 3 2 1 2 1 1 2 2 3 3 3 3 3 2 2 2 2 2 2 2 2 2 3 3 2 2 2 2 2 3 3 4 4 4 4 6 9
5 5 5 6 6 5 3 3 3 3 2 2 2 2 3 3 3 3 3 3 2 2 2 3 3 3 2 2 2 2 2 2 2 2 2 2 3 3 3 3 2 2 3
7 6 6 7 7 7 5 3 2 2 2 2 1 2 2 3 3 3 3 3 3 2 3 3 3 2 1 1 2 1 1 2 2 2 1 1 2 2 3 3 3 2 2
8 8 7 7 7 7 6 3 2 1 1 2 2 2 2 3 3 3 3 4 3 3 3 3 4 4 3 1 1 2 2 2 1 1 1 1 1 1 1 1 2 2 2
9 7 7 7 6 6 7 6 6 5 4 4 3 3 2 3 4 3 4 4 4 3 4 3 3 3 4 2 1 0 1 2 2 1 2 1 1 1 1 1 1 1 1
7 7 7 7 6 6 7 8 7 5 4 2 3 3 3 3 3 4 4 4 4 3 4 4 3 3 3 3 2 2 1 1 1 2 2 2 2 2 1 1 1 1 1
5 6 6 7 7 6 6 7 8 8 6 5 5 5 4 2 3 4 4 4 4 3 4 4 4 4 3 3 2 2 3 2 2 2 2 2 3 2 2 1 1 1 1
Wind_Direction
251 283 262 103 106 101 94 89 87 88 87 86 83 79 76 74 69 66 65 66 67 68 71 71 70 68 69 70 70 70 70 67 66 68 68 69 73 76 76 72 67 58 67
183 223 142 109 109 101 96 95 93 91 88 87 85 81 76 73 71 67 64 65 67 68 70 70 70 69 71 73 72 71 72 68 63 61 59 58 65 74 76 74 72 69 66
120 120 118 105 106 103 100 97 95 94 90 89 86 82 78 74 71 68 64 61 65 68 69 72 72 72 73 74 73 72 72 69 64 58 52 39 54 70 73 72 70 69 70
111 104 108 96 104 107 103 99 96 95 93 90 88 84 79 76 71 69 66 63 65 68 71 72 74 76 76 75 74 73 71 67 63 59 48 39 46 67 69 68 67 66 69
94 88 95 94 99 107 107 103 99 99 97 91 89 87 84 79 75 71 68 66 66 65 69 74 75 76 76 77 76 73 70 64 60 53 45 39 44 64 67 65 65 63 63
85 78 92 98 99 100 103 105 103 100 100 93 90 91 87 80 73 70 67 66 65 64 64 69 76 74 76 75 76 73 69 62 52 45 41 35 40 62 66 66 65 65 62
88 76 85 94 95 94 94 99 101 98 97 92 89 89 86 80 75 71 69 67 67 64 66 68 71 74 75 74 73 70 65 58 52 43 34 34 50 61 64 66 64 65 64
96 82 86 91 89 88 89 90 96 93 90 85 83 83 82 78 72 68 69 70 69 71 72 72 68 72 75 75 73 68 63 56 51 44 31 32 53 59 61 62 60 62 65
85 88 81 86 86 84 83 84 89 89 86 83 79 78 76 73 72 67 67 70 70 72 73 71 71 66 71 76 75 68 61 55 50 41 31 28 50 60 61 62 63 63 67
79 79 81 81 80 79 77 80 82 86 86 81 76 71 69 69 65 60 57 67 72 74 74 72 70 63 60 68 70 65 58 51 44 39 21 31 51 59 61 64 68 71 71
92 76 74 79 85 88 89 83 82 83 82 78 73 72 69 62 59 56 52 60 66 71 74 73 71 67 58 58 58 57 53 44 35 27 14 40 53 57 61 64 69 71 71
157 133 92 93 95 106 104 90 79 78 79 73 70 72 68 66 60 60 55 57 58 61 66 68 67 61 53 47 46 46 39 36 34 17 17 34 49 55 59 61 65 68 69
172 164 147 130 113 112 116 110 90 87 86 82 80 73 74 71 68 61 59 50 52 53 53 58 54 49 46 50 45 43 37 37 24 10 13 30 44 51 59 59 63 62 61
179 180 167 151 138 120 127 130 120 113 109 102 99 95 95 91 82 75 67 56 52 52 58 57 60 56 48 49 53 48 43 39 25 12 16 28 40 47 55 59 61 57 58
191 185 176 158 154 147 133 150 139 139 134 133 118 105 108 114 111 99 86 71 63 64 68 68 67 62 51 42 50 54 46 40 35 27 13 25 33 40 48 51 54 53 50
200 189 178 175 171 158 159 162 163 154 146 142 137 128 123 123 125 116 105 95 80 77 78 81 77 73 59 49 51 52 50 40 39 33 24 17 23 31 42 46 46 44 44
201 194 183 180 174 167 170 171 167 162 152 154 155 148 143 134 134 127 121 111 105 90 85 81 74 72 69 58 54 50 48 42 35 28 26 25 14 20 33 41 41 39 36
194 195 193 180 178 178 177 175 177 164 165 171 166 165 159 149 148 142 133 132 129 115 102 97 90 77 67 62 54 45 41 40 37 31 33 33 27 21 21 33 36 35 32
196 194 195 187 186 186 179 167 166 172 173 181 170 175 177 166 160 151 148 152 140 121 115 115 93 92 86 69 63 50 39 37 32 38 47 42 36 30 22 22 26 28 29
195 194 199 190 187 183 175 156 157 174 180 182 186 188 180 175 170 160 154 157 144 128 124 116 109 86 99 95 75 53 35 35 39 39 43 43 38 32 25 22 18 16 18
190 192 198 196 188 177 179 178 183 200 197 200 207 196 188 179 173 166 159 159 157 153 150 136 119 104 86 92 80 44 22 35 48 34 34 45 36 27 26 22 23 22 6
198 201 202 204 195 190 190 187 179 176 185 197 205 203 186 174 172 168 163 167 165 151 145 146 134 121 114 110 114 114 14 349 6 19 21 45 31 22 21 19 18 18 16
203 202 206 207 201 197 188 168 138 107 140 175 204 209 203 183 174 171 172 164 167 164 170 172 162 151 155 150 101 142 153 217 295 322 345 15 10 16 358 359 7 3 12
212 205 203 203 203 198 185 183 177 189 205 203 194 194 203 192 182 177 173 170 172 173 174 179 169 161 155 169 161 87 131 150 162 288 308 319 320 296 297 316 331 337 360
209 205 200 200 202 197 195 193 188 200 208 185 173 189 203 208 191 184 180 176 181 183 182 178 171 164 164 168 170 154 123 94 135 170 265 304 319 289 271 258 272 300 328
205 202 196 198 205 199 199 200 195 199 194 186 190 195 203 207 204 193 186 185 186 188 190 187 182 177 178 176 173 166 163 162 177 176 213 270 288 290 282 254 245 267 279